Regional Weather Roundup
Issued by NWS

Home | Current Version | Previous Version | Graphics & Text | Print | Product List | Glossary On
Versions: 1 2 3 4 5 6 7 8 9 10 11 12 13 14 15 16 17 18 19 20 21 22 23 24 25 26 27 28 29 30 31 32 33 34 35 36 37 38 39 40 41 42 43 44 45 46 47 48 49 50
000
ASUS43 KTOP 231408
RWRKS

WEATHER ROUNDUP FOR KANSAS
NATIONAL WEATHER SERVICE GOODLAND KS
900 AM CDT MON OCT 23 2017

NOTE:  "FAIR" INDICATES FEW OR NO CLOUDS BELOW 12,000 FEET WITH NO
SIGNIFICANT WEATHER AND/OR OBSTRUCTIONS TO VISIBILITY.

KSZ001>006-013>018-027>032-041>047-231500-
NORTHWEST KANSAS

CITY           SKY/WX    TMP DP  RH WIND       PRES   REMARKS
GOODLAND       CLOUDY    48  35  60 N18G31    30.27R
HAYS           CLOUDY    58  38  47 N24       30.14R
HILL CITY      CLOUDY    56  35  45 N18G32    30.18R
RUSSELL        CLOUDY    57  40  52 NW22      30.12R
$$

KSZ061>065-074>080-084>089-231500-
SOUTHWEST KANSAS

CITY           SKY/WX    TMP DP  RH WIND       PRES   REMARKS
DODGE CITY     CLOUDY    57  35  43 N16G29    30.17R
ELKHART          N/A     52  31  44 N10         N/A
GARDEN CITY    CLOUDY    54  35  48 N18       30.20R
GREAT BEND     CLOUDY    57  38  48 N24G30    30.12R
LIBERAL        CLOUDY    56  35  45 N23       30.17R
PRATT          CLOUDY    58  35  42 N22G31    30.10R
$$

KSZ066>073-081>083-090>101-231500-
SOUTHEAST KANSAS

CITY           SKY/WX    TMP DP  RH WIND       PRES   REMARKS
CHANUTE        SUNNY     51  42  71 S12       29.96F
COFFEYVILLE    SUNNY     49  45  86 S8        29.99S
HUTCHINSON     CLOUDY    57  37  47 N22G30    30.04R
MEDICINE LODGE   N/A     55  39  54 N17G26    30.06R
NEWTON         CLOUDY    51  38  60 NW16      30.03R
PARSONS        SUNNY     49  43  80 S6        29.99S
WICHITA INTL   CLOUDY    51  42  71 NW9       30.01R
WICHITA JABRA  MOSUNNY   51  41  68 NW12      30.02R
WICHITA MCCONL MOSUNNY   49  40  72 NW5       30.01R
WINFIELD       CLOUDY    51  44  77 W8        30.03R
$$

KSZ007>012-019>026-033>040-048>060-102>105-231500-
NORTHEAST KANSAS

CITY           SKY/WX    TMP DP  RH WIND       PRES   REMARKS
CONCORDIA      MOSUNNY   58  40  51 NW13G23   30.05R
EMPORIA        CLOUDY    55  39  54 W13G22    29.96R
LAWRENCE       SUNNY     50  44  80 SW3       29.94R
MANHATTAN      CLOUDY    55  39  54 N8        29.99R
MARYSVILLE     CLOUDY    55  41  58 N14       29.99R
OLATHE IND     SUNNY     50  41  71 SW12      29.95R
OLATHE EXE     SUNNY     50  40  68 W8        29.94R
SALINA         MOSUNNY   54  40  59 NW12      30.05R
TOPEKA BILLARD CLOUDY    52  44  74 W6        29.94R
TOPEKA FORBES  CLOUDY    53  43  68 W6        29.94R
$$




USA.gov is the U.S. government's official web portal to all federal, state and local government web resources and services.